Location: Unspecified
(43.3830°N, 0.0000°E)
Time: 09:45:47
(UTC+00:00)

N. Korean satellite - Pass Details

Date: 29 November 2020
Orbit: 453 x 502 km, 97.2° (Epoch: 16 January)

Event Time Altitude Azimuth Distance (km) Brightness Sun altitude
Rises 06:36:01 0° 354° (N) 2,555 9.9 -6.5°
Reaches altitude 10° 06:38:41 10° 332° (NNW) 1,680 8.8 -6.0°
Maximum altitude 06:40:55 16° 293° (WNW) 1,362 8.2 -5.7°
Drops below altitude 10° 06:43:09 10° 255° (WSW) 1,687 8.9 -5.3°
Sets 06:45:51 0° 233° (SW) 2,572 10.0 -4.9°
